Regional Weather Roundup
Issued by NWS Jackson, KY

Home | Current Version | Previous Version | Graphics & Text | Print | Product List | Glossary On
Versions: 1 2 3 4 5 6 7 8 9 10 11 12 13 14 15 16 17 18 19 20 21 22 23 24 25 26 27 28 29 30 31 32 33 34 35 36 37 38 39 40 41 42 43 44 45 46 47 48 49 50
000
ASUS43 KJKL 301811
RWRJKL

EAST KENTUCKY HOURLY WEATHER ROUNDUP
NATIONAL WEATHER SERVICE JACKSON KY
100 PM EST FRI JAN 30 2015

NOTE: "FAIR" INDICATES FEW OR NO CLOUDS BELOW 12,000 FEET WITH
NO SIGNIFICANT WEATHER AND/OR OBSTRUCTIONS TO VISIBILITY.

* THESE REPORTS ARE NOT UNDER NWS QUALITY CONTROL AND MAY NOT
  REPORT WEATHER SUCH AS PRECIPITATION AND FOG.

KYZ079-080-083-085-087-088-110-112-115-119-120-301900
...EASTERN KENTUCKY...

CITY           SKY/WX    TMP DP  RH WIND       PRES   REMARKS
JACKSON        PTSUNNY   32  18  56 NW12G22   30.36R WCI  23
6HR MIN TEMP:  27; 6HR MAX TEMP:  33; 6HR PCP:  0.02;

LONDON         MOSUNNY   37  21  52 NW8G20    30.39R WCI  31
6HR MIN TEMP:  32; 6HR MAX TEMP:  39; 6HR PCP: TRACE;

SOMERSET*      PTSUNNY   36  23  60 NW10      30.43F WCI  28
MONTICELLO*    PTSUNNY   39  24  55 N13G18    30.44F WCI  31
6HR MIN TEMP:  33; 6HR MAX TEMP:  40; 6HR PCP: TRACE;

MIDDLESBORO*   CLOUDY    37  19  48 N6G20     30.37F WCI  33
6HR MIN TEMP:  33; 6HR MAX TEMP:  38;

HARLAN APT*    CLOUDY    36  19  51 W15G24    30.33S WCI  26
HAZARD APT*    MOCLDY    36  19  51 NW10G21   30.36S WCI  28
BLACK MTN*       N/A     21  21 100 N6          N/A  WCI  14
PIKEVILLE APT* PTSUNNY   30  19  64 NW13G22   30.32S WCI  20
BIG SANDY*     CLOUDY    32  17  53 N12G17    30.35S WCI  23
MOREHEAD APT*  PTCLDY    32  18  55 NW10G18   30.44R WCI  24
$$

KYZ035-036-041-042-044-050-067-078-099-301900
...CENTRAL KENTUCKY...

CITY           SKY/WX    TMP DP  RH WIND       PRES   REMARKS
MT STERLING*   MOSUNNY   32  18  55 N12       30.43S WCI  23
FLEMING/MASON* MOSUNNY   28  13  53 N14G22    30.44S WCI  17
DANVILLE*      CLOUDY    34  21  60 N14G21    30.44F WCI  24
RICHMOND*      CLOUDY    34  19  55 NW15      30.42S WCI  24
LEXINGTON      PTSUNNY   32  17  54 NW13      30.44S WCI  22
6HR MIN TEMP:  30; 6HR MAX TEMP:  35; 6HR PCP: TRACE;

FRANKFORT      PTSUNNY   34  15  46 N12       30.44F WCI  25
6HR MIN TEMP:  31; 6HR MAX TEMP:  34; 6HR PCP: TRACE;

$$

KYZ091>093-OHZ055-061-077-WVZ005-015-034-035-042-301900
...SOUTHERN OHIO/WEST VIRGINIA...

CITY           SKY/WX    TMP DP  RH WIND       PRES   REMARKS
COVINGTON      PTSUNNY   30  14  51 N10G20    30.44  WCI  21
COLUMBUS       MOSUNNY   23   9  55 NW16G25   30.40S WCI  10
DAYTON         CLOUDY    24  13  62 NW12      30.44F WCI  13
WILMINGTON     CLOUDY    24  11  57 N14       30.41F WCI  12
HUNTINGTON     PTSUNNY   28  12  51 NW12G22   30.39S WCI  18
CHARLESTON     LGT SNOW  26  16  65 N15G28    30.35R WCI  14
PINEVILLE*     LGT SNOW  31  25  79 MISG      30.30S
BECKLEY        LGT SNOW  23  14  68 NW20G31   30.18R WCI   8
BLUEFIELD      LGT SNOW  28  19  69 W17G30    30.14F WCI  16
$$

VAZ002-007-008-TNZ017-027-036-066-071-301900
...SOUTHWEST VIRGINIA/EAST TENNESSEE...

CITY           SKY/WX    TMP DP  RH WIND       PRES   REMARKS
WISE*          CLOUDY    28  21  74 NW12G22   30.25R WCI  18
JONESVILLE*    MOCLDY    36  18  48 W8G18     30.35F WCI  29
ABINGDON*      CLOUDY    34  20  55 NW16G29   30.24S WCI  24
BRISTOL        PTSUNNY   39  19  44 W17G28    30.28F WCI  30
KNOXVILLE      PTSUNNY   40  21  46 N9        30.38F WCI  34
OAK RIDGE      MOSUNNY   42  21  43 N9G16     30.39F
CROSSVILLE     PTSUNNY   35  20  54 NW12      30.37F WCI  27
NASHVILLE      MOSUNNY   43  20  39 N8        30.46F
$$

...KEY TO REMARKS...
VSB - VISIBILITY IN MILES
WCI - WIND CHILL INDEX
HX  - HEAT INDEX

$$


USA.gov is the U.S. government's official web portal to all federal, state and local government web resources and services.